EW5855 Weather Reports


Display with metric or nautical units.
time (UTC)temp
F
wind
direction
speed
MPH
gust
MPH
rain 1hr
in
rain 24hr
in
rain mn
in
humidity
%
barometer
mb
20260903003524 66 203 0.0 1.0 0.00 0.00 0.00 96 1017.6
20260903002520 67 228 0.0 1.0 0.00 0.00 0.00 95 1017.4
20260903001517 67 50 1.0 2.0 0.00 0.00 0.00 94 1017.2
20260903000534 67 148 0.0 1.0 0.00 0.00 0.00 94 1016.6
20260902235530 67 198 0.0 1.0 0.00 0.00 0.00 95 1017.2
20260902234526 67 270 1.0 2.0 0.00 0.00 0.00 91 1016.6
20260902233523 68 178 0.0 1.0 0.00 0.00 0.00 92 1016.4
20260902232519 67 180 1.0 2.0 0.00 0.00 0.00 92 1016.8
20260902231534 67 0.0 0.0 0.00 0.00 0.00 95 1017.1
20260902230548 67 0.0 0.0 0.00 0.00 0.00 95 1017.4
20260902225524 68 0.0 0.0 0.00 0.00 0.00 94 1017.8
20260902224519 68 0.0 0.0 0.00 0.00 0.00 94 1018.4
20260902223535 69 0.0 0.0 0.00 0.00 0.00 91 1018.8
20260902222530 69 0.0 0.0 0.00 0.00 0.00 90 1018.8
20260902221526 70 0.0 0.0 0.00 0.00 0.00 91 1018.9
20260902220522 70 0.0 0.0 0.00 0.00 0.00 88 1019.1
20260902215517 70 0.0 0.0 0.00 0.00 0.00 88 1019.0
20260902214533 69 179 1.0 2.0 0.00 0.00 0.00 89 1019.0
20260902213528 70 183 0.0 1.0 0.00 0.00 0.00 92 1019.2
20260902212523 70 182 0.0 2.0 0.00 0.00 0.00 92 1019.2
20260902211520 70 191 1.0 1.0 0.00 0.00 0.00 89 1019.3
20260902210535 71 195 0.0 2.0 0.00 0.00 0.00 88 1019.1
20260902205530 71 233 1.0 1.0 0.00 0.00 0.00 89 1019.0
20260902204607 71 221 1.0 1.0 0.00 0.00 0.00 86 1019.1
20260902203522 71 244 1.0 3.0 0.00 0.00 0.00 86 1019.1
20260902202517 71 247 1.0 3.0 0.00 0.00 0.00 85 1019.2
20260902201532 71 251 2.0 3.0 0.00 0.00 0.00 85 1019.1
20260902200528 71 213 1.0 3.0 0.00 0.00 0.00 84 1019.1
20260902195543 71 220 1.0 2.0 0.00 0.00 0.00 85 1019.1
20260902194519 71 224 0.0 1.0 0.00 0.00 0.00 86 1019.4
20260902193535 71 216 1.0 2.0 0.00 0.00 0.00 86 1019.3
20260902192532 71 199 0.0 1.0 0.00 0.00 0.00 87 1019.4
20260902191527 71 233 0.0 1.0 0.00 0.00 0.00 87 1019.7
20260902190543 71 196 0.0 1.0 0.00 0.00 0.00 86 1019.8
20260902185520 70 202 0.0 1.0 0.00 0.00 0.00 87 1019.9
20260902184515 70 262 3.0 4.0 0.00 0.00 0.00 85 1020.1
20260902183533 70 250 3.0 3.0 0.00 0.00 0.00 85 1020.0
20260902182528 70 239 2.0 3.0 0.00 0.00 0.00 86 1019.8
20260902181523 71 237 1.0 2.0 0.00 0.00 0.00 83 1020.0
20260902180519 71 270 3.0 4.0 0.00 0.00 0.00 83 1019.8
20260902175535 71 230 2.0 3.0 0.00 0.00 0.00 83 1020.0
20260902174531 71 249 2.0 4.0 0.00 0.00 0.00 85 1019.9
20260902173527 71 230 1.0 3.0 0.00 0.00 0.00 86 1020.0
20260902172542 70 254 2.0 4.0 0.00 0.00 0.00 86 1020.1
20260902171538 70 247 2.0 3.0 0.00 0.00 0.00 84 1020.0
20260902170534 70 232 1.0 2.0 0.00 0.00 0.00 83 1020.1
20260902165530 71 209 1.0 2.0 0.00 0.00 0.00 83 1020.0
20260902164525 72 182 1.0 3.0 0.00 0.00 0.00 80 1020.1
20260902163521 72 233 1.0 6.0 0.00 0.00 0.00 78 1020.3
20260902162518 71 168 1.0 3.0 0.00 0.00 0.00 79 1020.3
20260902161533 71 191 2.0 4.0 0.00 0.00 0.00 81 1020.4
20260902160529 70 167 1.0 3.0 0.00 0.00 0.00 80 1020.4
20260902155526 70 179 1.0 4.0 0.00 0.00 0.00 81 1020.5
20260902154520 70 235 1.0 3.0 0.00 0.00 0.00 80 1020.7
20260902153535 70 188 0.0 1.0 0.00 0.00 0.00 82 1021.1
20260902152551 70 194 1.0 3.0 0.00 0.00 0.00 81 1021.0
20260902151526 70 184 1.0 2.0 0.00 0.01 0.00 83 1021.0
20260902150522 69 203 0.0 2.0 0.00 0.01 0.00 88 1021.1
20260902145518 70 0.0 0.0 0.00 0.02 0.00 87 1021.0
20260902144534 69 196 1.0 2.0 0.00 0.03 0.00 86 1021.1
20260902143530 69 188 1.0 3.0 0.00 0.05 0.00 84 1021.2
20260902142526 69 238 0.0 1.0 0.00 0.06 0.00 86 1021.2
20260902141523 69 254 0.0 1.0 0.00 0.07 0.00 86 1021.1
20260902140519 68 0.0 0.0 0.00 0.07 0.00 87 1021.3
20260902135534 68 212 0.0 1.0 0.00 0.07 0.00 86 1021.2
20260902134550 68 179 0.0 2.0 0.00 0.07 0.00 85 1021.0
20260902133526 68 221 1.0 1.0 0.00 0.07 0.00 85 1020.8
20260902132521 68 208 1.0 2.0 0.00 0.07 0.00 84 1020.7
20260902131517 68 236 1.0 3.0 0.00 0.07 0.00 84 1020.1
20260902130553 68 207 1.0 2.0 0.00 0.07 0.00 84 1020.2
20260902125528 67 192 1.0 2.0 0.00 0.07 0.00 86 1020.5
20260902124524 67 209 0.0 2.0 0.00 0.07 0.00 87 1020.3
20260902123520 67 218 1.0 3.0 0.00 0.07 0.00 86 1020.5
20260902122537 67 230 1.0 3.0 0.00 0.07 0.00 86 1020.5
20260902121553 67 248 1.0 2.0 0.00 0.07 0.00 87 1020.2
20260902120527 67 225 0.0 2.0 0.00 0.07 0.00 88 1020.1
20260902115524 66 242 1.0 3.0 0.00 0.07 0.00 91 1020.3
20260902114520 65 219 0.0 1.0 0.00 0.07 0.00 94 1020.2
20260902113556 65 230 0.0 2.0 0.00 0.07 0.00 96 1020.5
20260902112551 64 209 0.0 2.0 0.00 0.08 0.00 98 1020.6
20260902111547 64 213 0.0 1.0 0.00 0.08 0.00 99 1020.7
20260902110522 64 236 1.0 2.0 0.00 0.08 0.00 99 1020.6
20260902105518 63 239 1.0 2.0 0.00 0.09 0.00 99 1020.5
20260902104533 64 0.0 0.0 0.00 0.13 0.00 99 1020.4
20260902103529 64 0.0 0.0 0.00 0.17 0.00 99 1020.3
20260902102524 64 0.0 0.0 0.00 0.20 0.00 99 1020.2
20260902101619 64 0.0 0.0 0.00 0.23 0.00 99 1020.2
20260902100557 63 236 0.0 1.0 0.00 0.25 0.00 99 1020.2
20260902095532 64 249 2.0 2.0 0.00 0.27 0.00 99 1020.0
20260902094547 64 231 1.0 1.0 0.00 0.28 0.00 99 1020.0
20260902093523 64 234 1.0 1.0 0.00 0.29 0.00 99 1019.9
20260902092518 64 223 0.0 1.0 0.00 0.29 0.00 99 1019.9
20260902091534 64 202 0.0 1.0 0.00 0.29 0.00 99 1019.9
20260902090529 64 212 1.0 2.0 0.00 0.29 0.00 99 1019.9
20260902085604 64 219 0.0 1.0 0.00 0.29 0.00 99 1019.8
20260902084521 64 228 0.0 2.0 0.00 0.29 0.00 99 1019.8
20260902083534 64 214 0.0 2.0 0.00 0.29 0.00 99 1019.6
20260902082531 64 0.0 0.0 0.00 0.29 0.00 99 1019.7
20260902081524 64 0.0 0.0 0.00 0.29 0.00 99 1019.6
20260902080551 64 0.0 0.0 0.00 0.29 0.00 99 1019.7
20260902075535 64 0.0 0.0 0.00 0.29 0.00 99 1019.7
20260902074531 64 0.0 0.0 0.00 0.29 0.00 99 1019.7
20260902073546 64 0.0 0.0 0.00 0.29 0.00 99 1019.5
20260902072523 64 0.0 0.0 0.00 0.29 0.00 99 1019.7
20260902071518 64 0.0 0.0 0.00 0.29 0.00 99 1019.7
20260902070534 64 0.0 0.0 0.00 0.29 0.00 99 1019.5
20260902065530 64 0.0 0.0 0.00 0.29 0.00 99 1019.6
20260902064526 64 205 1.0 2.0 0.00 0.29 0.00 99 1019.6
20260902063521 64 0.0 0.0 0.00 0.29 0.00 99 1019.8
20260902062518 64 0.0 0.0 0.00 0.29 0.00 99 1019.8
20260902061534 64 0.0 0.0 0.00 0.29 0.00 99 1019.8
20260902060530 64 0.0 0.0 0.00 0.29 0.00 99 1019.6
20260902055545 64 0.0 0.0 0.00 0.29 0.00 99 1019.6
20260902054601 64 0.0 0.0 0.00 0.29 0.00 99 1019.5
20260902053538 65 0.0 0.0 0.00 0.29 0.00 99 1019.4
20260902052533 65 0.0 0.0 0.00 0.29 0.00 99 1019.3
20260902051549 65 0.0 0.0 0.00 0.29 0.00 99 1019.3
20260902050524 65 0.0 0.0 0.00 0.29 0.00 99 1019.2
20260902045535 65 0.0 0.0 0.00 0.29 0.00 99 1019.2
20260902044530 65 0.0 0.0 0.00 0.29 0.00 98 1019.1
20260902043526 65 0.0 0.0 0.00 0.29 0.00 98 1019.0
20260902042542 65 0.0 0.0 0.00 0.29 0.00 98 1018.8
20260902041517 65 0.0 0.0 0.00 0.29 0.00 98 1018.9
20260902040553 65 0.0 0.0 0.00 0.29 0.00 98 1018.8
20260902035528 66 231 0.0 1.0 0.00 0.29 0.29 97 1018.7
20260902034524 66 196 0.0 1.0 0.00 0.29 0.29 97 1018.6
20260902033519 66 238 1.0 3.0 0.00 0.29 0.29 96 1018.4
20260902032535 66 207 1.0 2.0 0.00 0.29 0.29 95 1018.4
20260902031531 66 249 1.0 3.0 0.00 0.29 0.29 94 1018.4
20260902030526 66 255 1.0 2.0 0.00 0.29 0.29 94 1018.3
20260902025521 66 189 1.0 2.0 0.00 0.29 0.29 96 1018.1
20260902024517 66 205 1.0 3.0 0.00 0.29 0.29 99 1018.4
20260902023532 65 239 2.0 3.0 0.00 0.29 0.29 99 1018.4
20260902022548 65 200 0.0 1.0 0.00 0.29 0.29 99 1018.3
20260902021523 66 252 0.0 2.0 0.00 0.29 0.29 99 1018.4
20260902020519 65 222 1.0 2.0 0.00 0.29 0.29 99 1018.3
20260902015535 66 209 1.0 2.0 0.00 0.29 0.29 99 1018.2
20260902014531 66 200 0.0 2.0 0.00 0.29 0.29 99 1018.0
20260902013606 66 186 0.0 1.0 0.00 0.29 0.29 98 1018.0
20260902012523 67 206 1.0 2.0 0.00 0.29 0.29 95 1017.8
20260902011518 67 77 3.0 6.0 0.00 0.29 0.29 92 1017.9
20260902010553 67 84 0.0 2.0 0.00 0.29 0.29 93 1017.9
20260902005528 67 122 1.0 4.0 0.00 0.29 0.29 95 1017.7
20260902004544 67 60 1.0 2.0 0.00 0.29 0.29 93 1017.7